Location: Balmoral
(33.0667°S, 151.5833°E)
Time: 00:41:46
(UTC+00:00)

Cosmos 2219 - Pass Details

Date: 18 September 2020
Orbit: 832 x 861 km, 71.1° (Epoch: 21 October)

Event Time Altitude Azimuth Distance (km) Brightness Sun altitude
Exits shadow 19:12:46 - 310° (NW) 3,180 5.7 -8.1°
Reaches altitude 10° 19:14:48 10° 301° (WNW) 2,501 5.1 -7.7°
Maximum altitude 19:19:45 29° 242° (WSW) 1,532 4.1 -6.6°
Drops below altitude 10° 19:24:45 10° 182° (S) 2,516 5.7 -5.6°
Sets 19:27:34 0° 171° (S) 3,455 6.5 -5.0°
